Stations météo

réclame
Mon MeteoGroup
D15-FA-1, Pays-Bas (6201): Température de l'air & dewpoint: 07.07.2020 22:00:00 - 13.07.2020 22:00:00 (CEST)D15-FA-1, Pays-Bas (6201): Vitesse du vent & gusts: 07.07.2020 22:00:00 - 13.07.2020 22:00:00 (CEST)D15-FA-1, Pays-Bas (6201): Direction du vent: 07.07.2020 22:00:00 - 13.07.2020 22:00:00 (CEST)D15-FA-1, Pays-Bas (6201): reduced air pressure: 07.07.2020 22:00:00 - 13.07.2020 22:00:00 (CEST)D15-FA-1, Pays-Bas (6201): visibility: 07.07.2020 22:00:00 - 13.07.2020 22:00:00 (CEST)
Date & Time tt [°C] td [°C] ff [km/h] ff [knt] fx [km/h] fx [knt] dd ppp [hPa] vv [km]
13.07.2020 22:00:00 - - - - - - - - -
13.07.2020 21:00:00 15,8 13,5 34 18 32 18 SW 1016,6 10
13.07.2020 20:00:00 15,6 13,2 29 16 32 18 SW 1017,1 48
13.07.2020 19:00:00 15,5 12,9 22 12 29 16 SW 1017,7 48
13.07.2020 18:00:00 15,4 12,6 28 15 29 16 WSW 1018,4 10
13.07.2020 17:00:00 15,4 12,3 28 15 32 18 SW 1018,6 10
13.07.2020 16:00:00 15,5 11,9 31 17 29 16 SW 1019,3 10
13.07.2020 15:00:00 15,4 12,4 29 16 36 19 SW 1019,8 10
13.07.2020 14:00:00 15,4 12,0 28 15 36 19 SW 1020,5 10
13.07.2020 13:00:00 15,4 12,2 28 15 36 19 SW 1020,8 10
13.07.2020 12:00:00 15,1 12,7 35 19 40 21 SW 1021,3 10
13.07.2020 11:00:00 15,3 12,7 37 20 40 21 SW 1021,7 10
13.07.2020 10:00:00 15,3 12,6 37 20 36 19 SW 1022,0 10
13.07.2020 09:00:00 15,4 12,5 34 18 36 19 SW 1022,4 10
13.07.2020 08:00:00 15,4 12,2 31 17 36 19 SW 1022,7 10
13.07.2020 07:00:00 15,2 11,9 29 16 32 18 SW 1023,2 10
13.07.2020 06:00:00 15,1 12,0 29 16 29 16 SW 1023,5 10
13.07.2020 05:00:00 15,1 11,8 25 14 32 18 SW 1024,0 50
13.07.2020 04:00:00 15,0 12,1 26 14 29 16 SW 1024,8 10
13.07.2020 03:00:00 14,8 11,8 26 14 29 16 SW 1025,3 10
13.07.2020 02:00:00 14,6 11,1 26 14 32 18 SW 1025,7 10
13.07.2020 01:00:00 14,4 10,7 28 15 32 18 SW 1026,1 10
13.07.2020 00:00:00 14,3 10,4 21 11 29 16 SW 1026,4 10
12.07.2020 23:00:00 14,3 11,0 18 10 29 16 SSW 1026,9 10
12.07.2020 22:00:00 14,4 10,4 16 9 25 14 S 1027,1 10
12.07.2020 21:00:00 14,5 9,4 13 7 18 10 S 1027,0 10
12.07.2020 20:00:00 14,6 8,6 9 5 14 8 SW 1027,4 10
12.07.2020 19:00:00 14,8 8,6 8 4 11 6 W 1027,6 10
12.07.2020 18:00:00 14,7 8,5 9 5 11 6 W 1028,0 10
12.07.2020 17:00:00 14,9 8,8 9 5 14 8 W 1028,2 10
12.07.2020 16:00:00 14,8 9,9 11 6 14 8 W 1028,5 10
12.07.2020 15:00:00 15,0 10,4 13 7 14 8 W 1028,8 10
12.07.2020 14:00:00 14,8 11,0 13 7 14 8 NW 1028,8 10
12.07.2020 13:00:00 14,6 11,4 11 6 14 8 WNW 1028,5 10
12.07.2020 12:00:00 14,5 11,6 11 6 14 8 W 1028,3 10
12.07.2020 11:00:00 14,5 11,6 9 5 11 6 W 1028,0 10
12.07.2020 10:00:00 14,4 11,6 11 6 14 8 W 1028,1 10
12.07.2020 09:00:00 14,2 12,1 21 11 22 12 W 1027,8 10
12.07.2020 08:00:00 14,2 11,5 15 8 18 10 W 1027,3 10
12.07.2020 07:00:00 14,3 11,5 13 7 22 12 WSW 1026,9 10
12.07.2020 06:00:00 14,4 10,8 28 15 29 16 W 1026,8 10
12.07.2020 05:00:00 14,4 10,4 26 14 29 16 W 1026,7 10
12.07.2020 04:00:00 14,2 10,7 24 13 25 14 W 1026,8 10
12.07.2020 03:00:00 14,1 9,8 18 10 25 14 W 1027,0 10
12.07.2020 02:00:00 14,1 9,9 24 13 25 14 W 1027,1 10
12.07.2020 01:00:00 14,0 10,1 24 13 25 14 - 1027,1 10
12.07.2020 00:00:00 13,8 10,2 16 9 22 12 W 1027,0 10
11.07.2020 23:00:00 13,9 10,3 18 10 22 12 W 1027,0 10
11.07.2020 22:00:00 14,0 9,9 21 11 22 12 W 1026,7 10
11.07.2020 21:00:00 14,3 9,8 18 10 22 12 W 1026,4 10
11.07.2020 20:00:00 14,5 10,2 18 10 22 12 W 1026,2 10
11.07.2020 19:00:00 14,6 10,1 24 13 25 14 WNW 1026,1 10
11.07.2020 18:00:00 14,6 10,1 26 14 29 16 WNW 1025,9 10
11.07.2020 17:00:00 14,4 9,2 25 14 29 16 WNW 1025,7 17
11.07.2020 16:00:00 14,5 9,3 26 14 29 16 WNW 1025,5 10
11.07.2020 15:00:00 14,6 9,5 22 12 29 16 WNW 1025,1 17
11.07.2020 14:00:00 14,4 9,9 26 14 25 14 WNW 1024,6 10
11.07.2020 13:00:00 14,4 10,4 21 11 22 12 WNW 1024,0 10
11.07.2020 12:00:00 14,9 10,5 22 12 22 12 WNW 1023,5 10
11.07.2020 11:00:00 14,5 10,6 18 10 22 12 W 1022,9 10
11.07.2020 10:00:00 13,8 11,1 18 10 18 10 W 1022,5 10
11.07.2020 09:00:00 13,4 10,9 13 7 22 12 WSW 1022,1 10
11.07.2020 08:00:00 13,3 10,1 14 8 18 10 W 1021,5 49
11.07.2020 07:00:00 13,1 10,3 13 7 14 8 WSW 1021,2 10
11.07.2020 06:00:00 13,1 10,1 11 6 18 10 W 1020,9 46
11.07.2020 05:00:00 13,1 9,6 16 9 22 12 W 1020,4 10
11.07.2020 04:00:00 13,2 9,9 16 9 25 14 W 1020,3 10
11.07.2020 03:00:00 13,2 9,9 18 10 22 12 W 1020,4 38
11.07.2020 02:00:00 13,4 9,0 21 11 22 12 WNW 1020,3 10
11.07.2020 01:00:00 13,5 9,0 22 12 22 12 WNW 1020,0 10
11.07.2020 00:00:00 13,5 9,3 22 12 25 14 W 1019,7 10
10.07.2020 23:00:00 13,4 9,1 24 13 25 14 W 1019,4 10
10.07.2020 22:00:00 13,5 8,7 22 12 29 16 WNW 1019,0 10
10.07.2020 21:00:00 13,6 8,9 24 13 29 16 WNW 1018,7 10
10.07.2020 20:00:00 13,8 8,3 24 13 25 14 WNW 1018,4 10
10.07.2020 19:00:00 13,9 8,5 21 11 25 14 WNW 1018,0 -
10.07.2020 18:00:00 13,8 8,4 26 14 25 14 WNW 1017,6 -
10.07.2020 17:00:00 13,9 8,2 21 11 25 14 NW 1017,2 -
10.07.2020 16:00:00 13,7 8,6 24 13 25 14 WNW 1016,7 -
10.07.2020 15:00:00 13,5 9,0 24 13 29 16 NNW 1016,3 10
10.07.2020 14:00:00 13,5 8,4 31 17 32 18 NNW 1015,7 10
10.07.2020 13:00:00 13,5 8,7 29 16 32 18 NW 1015,2 10
10.07.2020 12:00:00 13,0 8,0 28 15 - - NNW 1014,8 -
10.07.2020 11:00:00 13,2 7,9 26 14 29 16 N 1014,0 -
10.07.2020 10:00:00 13,3 7,9 28 15 32 18 N 1013,4 -
10.07.2020 09:00:00 13,4 7,6 31 17 32 18 N 1012,9 10
10.07.2020 08:00:00 13,2 7,9 29 16 32 18 N 1012,5 10
10.07.2020 07:00:00 13,1 8,3 37 20 40 21 NNE 1012,1 10
10.07.2020 06:00:00 13,1 8,7 37 20 40 21 NNE 1011,7 10
10.07.2020 05:00:00 13,1 8,3 21 11 25 14 - 1011,9 10
10.07.2020 04:00:00 13,1 8,0 29 16 32 18 - 1012,0 10
10.07.2020 03:00:00 13,2 8,5 29 16 36 19 - 1012,3 10
10.07.2020 02:00:00 13,2 9,1 24 13 36 19 - 1012,4 10
10.07.2020 01:00:00 13,2 8,4 22 12 29 16 - 1012,3 10
10.07.2020 00:00:00 13,3 8,7 28 15 32 18 NNE 1012,6 10
09.07.2020 23:00:00 13,3 8,5 29 16 29 16 - 1012,5 10
09.07.2020 22:00:00 13,3 8,3 28 15 29 16 - 1012,5 10
09.07.2020 21:00:00 13,3 8,5 24 13 29 16 - 1012,9 10
09.07.2020 20:00:00 13,4 9,0 28 15 32 18 - 1012,8 10
09.07.2020 19:00:00 13,6 9,3 24 13 25 14 ENE 1012,8 10
09.07.2020 18:00:00 13,5 8,9 24 13 36 19 NE 1013,5 10
09.07.2020 17:00:00 12,8 9,9 18 10 29 16 ENE 1013,1 10
09.07.2020 16:00:00 12,9 10,6 29 16 29 16 E 1013,6 10
09.07.2020 15:00:00 13,5 9,8 26 14 29 16 E 1013,1 10
09.07.2020 14:00:00 13,0 10,0 28 15 25 14 E 1013,0 10
09.07.2020 13:00:00 13,0 10,2 28 15 29 16 E 1012,7 10
09.07.2020 12:00:00 12,6 10,3 24 13 29 16 E 1012,5 10
09.07.2020 11:00:00 12,2 10,1 22 12 32 18 E 1012,4 15
09.07.2020 10:00:00 12,1 9,9 31 17 32 18 E 1012,2 10
09.07.2020 09:00:00 11,8 9,7 34 18 32 18 E 1012,2 10
09.07.2020 08:00:00 11,9 9,6 31 17 32 18 E 1012,5 9
09.07.2020 07:00:00 12,2 9,2 28 15 29 16 E 1012,9 10
09.07.2020 06:00:00 12,3 9,6 28 15 29 16 ESE 1012,7 10
09.07.2020 05:00:00 12,3 9,3 24 13 25 14 E 1013,4 10
09.07.2020 04:00:00 12,4 9,2 21 11 22 12 E 1014,1 10
09.07.2020 03:00:00 12,7 8,8 18 10 22 12 E 1014,7 10
09.07.2020 02:00:00 13,0 8,2 21 11 22 12 ESE 1015,3 10
09.07.2020 01:00:00 13,1 7,4 16 9 18 10 ESE 1015,8 10
09.07.2020 00:00:00 13,1 7,3 13 7 14 8 ESE 1016,1 10
08.07.2020 23:00:00 13,1 7,1 11 6 11 6 E 1016,3 10
08.07.2020 22:00:00 13,1 6,9 9 5 11 6 ENE 1016,1 10
08.07.2020 21:00:00 13,1 7,2 8 4 11 6 NE 1016,8 10
08.07.2020 20:00:00 13,1 6,7 8 4 11 6 E 1016,6 10
08.07.2020 19:00:00 13,0 6,8 7 4 14 8 E 1016,8 50
08.07.2020 18:00:00 13,1 7,2 7 4 18 10 NNE 1017,0 49
08.07.2020 17:00:00 13,2 7,4 7 4 14 8 NNE 1017,1 48
08.07.2020 16:00:00 13,1 7,0 11 6 14 8 NNE 1017,1 10
08.07.2020 15:00:00 13,1 8,2 9 5 18 10 N 1017,0 10
08.07.2020 14:00:00 13,2 9,0 15 8 18 10 - 1016,7 10
08.07.2020 13:00:00 13,2 8,1 16 9 18 10 NNE 1016,2 10
08.07.2020 12:00:00 13,3 7,9 16 9 18 10 - 1016,1 10
08.07.2020 11:00:00 13,3 8,7 15 8 18 10 - 1015,7 10
08.07.2020 10:00:00 13,4 9,4 16 9 18 10 - 1015,3 10
08.07.2020 09:00:00 13,6 9,2 13 7 14 8 NNE 1014,8 10
08.07.2020 08:00:00 13,7 9,2 15 8 18 10 NNE 1014,7 10
08.07.2020 07:00:00 13,4 8,9 11 6 14 8 NNE 1014,4 10
08.07.2020 06:00:00 13,3 9,0 11 6 14 8 N 1014,2 10
08.07.2020 05:00:00 13,2 9,6 11 6 14 8 NW 1014,4 10
08.07.2020 04:00:00 13,2 10,0 11 6 14 8 NW 1014,7 10
08.07.2020 03:00:00 13,1 9,7 11 6 14 8 WNW 1015,1 49
08.07.2020 02:00:00 13,1 10,1 13 7 18 10 WNW 1015,5 10
08.07.2020 01:00:00 13,1 10,1 15 8 18 10 W 1015,6 10
08.07.2020 00:00:00 13,2 10,1 11 6 25 14 - 1015,6 10
07.07.2020 23:00:00 13,1 10,0 16 9 25 14 - 1015,7 10
07.07.2020 22:00:00 13,1 8,5 18 10 25 14 WSW 1016,0 10

tt = Température de l'air
td = dewpoint
ff = Vitesse du vent
fx = gusts
dd = Direction du vent
ppp = reduced air pressure
vv = visibility

stations d'obs. à proximité